Location: Olda
(45.8833°N, 9.5500°E)
Time: 14:46:49
(UTC+00:00)

Cosmos 1666 - Pass Details

Date: 03 March 2021
Orbit: 497 x 518 km, 82.5° (Epoch: 15 April)

Event Time Altitude Azimuth Distance (km) Brightness Sun altitude
Rises 18:28:05 0° 170° (S) 2,572 6.1 -14.1°
Reaches altitude 10° 18:30:16 10° 163° (SSE) 1,695 5.1 -14.5°
Maximum altitude 18:33:45 39° 93° (E) 758 3.0 -15.1°
Drops below altitude 10° 18:37:15 10° 24° (NNE) 1,714 5.2 -15.7°
Sets 18:39:28 0° 16° (NNE) 2,606 6.2 -16.1°
